Location: Chuathbaluk
(61.5726°N, 159.2454°W)
Time: 23:45:26
(UTC+00:00)

Transit 2A - Pass Details

Date: 26 November 2020
Orbit: 598 x 960 km, 66.7° (Epoch: 20 January)

Event Time Altitude Azimuth Distance (km) Brightness Sun altitude
Rises 12:21:57 0° 308° (NW) 3,441 - -44.7°
Reaches altitude 10° 12:24:34 10° 304° (NW) 2,446 - -44.5°
Maximum altitude 12:30:03 57° 227° (SW) 902 - -44.1°
Drops below altitude 10° 12:34:58 10° 150° (SSE) 2,194 - -43.7°
Sets 12:37:12 0° 146° (SE) 3,058 - -43.5°
